Home   Weather   Arlington   Past weeks
Flag for USA

Past Weather in Arlington, Texas, USA — Yesterday and Last 2 Weeks

Now
51 °F

Clear.


Feels Like: 51 °F
Forecast: 73 / 50 °F
Wind: No wind

Location: Arlington Municipal Airport

Current Time: Mar 29, 2020 at 1:30:13 am

Latest Report: Mar 29, 2020 at 12:53 am


Visibility: 10 mi

Pressure: 29.98 "Hg

Humidity: 80%

Dew Point: 45 °F

Location of ArlingtonLocation

Past Weather in Arlington — Graph

°F

Arlington Temperature Yesterday

Maximum temperature yesterday: 76 °F (at 12:53 am)
Minimum temperature yesterday: 52 °F (at 11:53 pm)
Average temperature yesterday: 69 °F

High & Low Weather Summary for the Past Weeks

 TemperatureHumidityPressure
High88 °F (Mar 25, 4:53 pm)93% (Mar 15, 10:07 pm)30.44 "Hg (Mar 15, 10:07 pm)
Low44 °F (Mar 21, 5:53 am)18% (Mar 24, 4:53 pm)29.63 "Hg (Mar 27, 4:53 pm)
Average65 °F77%30.01 "Hg
* Reported Mar 13 11:21 pm — Mar 28 11:53 pm, Arlington. Weather by CustomWeather, © 2020

Note: Actual official high and low records may vary slightly from our data, if they occured in-between our weather recording intervals... More about our weather records

Arlington Weather History for the Previous 24 Hours

Scroll right to see more
 ConditionsComfort  
Time TempWeatherWind HumidityBarometerVisibility
11:53 pm
Sat, Mar 28
52 °FClear.3 mph83%29.98 "Hg10 mi
10:53 pm53 °FClear.No wind83%29.97 "Hg10 mi
9:53 pm55 °FClear.No wind74%29.95 "Hg10 mi
8:53 pm59 °FClear.No wind62%29.91 "Hg10 mi
7:53 pm68 °FClear.No wind35%29.87 "Hg10 mi
6:53 pm75 °FSunny.6 mph19%29.85 "Hg10 mi
5:53 pm75 °FSunny.9 mph24%29.83 "Hg10 mi
4:53 pm75 °FSunny.7 mph20%29.82 "Hg10 mi
3:53 pm76 °FSunny.12 mph19%29.81 "Hg10 mi
2:53 pm75 °FSunny.13 mph20%29.81 "Hg10 mi
1:53 pm76 °FSunny.12 mph18%29.82 "Hg10 mi
12:53 pm73 °FPassing clouds.13 mph19%29.82 "Hg10 mi
11:53 am71 °FPartly sunny.12 mph27%29.81 "Hg10 mi
10:53 am65 °FSunny.7 mph56%29.80 "Hg10 mi
10:04 am59 °FLight rain. Scattered clouds.8 mph75%29.81 "Hg10 mi
9:53 am58 °FThundershowers. Broken clouds.12 mph75%29.79 "Hg10 mi
8:53 am59 °FRain. Cloudy.15 mph67%29.85 "Hg6 mi
8:33 am59 °FThunderstorms. Mostly cloudy.17 mph69%29.83 "Hg2 mi
8:15 am72 °FThundershowers. Broken clouds.23 mph84%29.80 "Hg6 mi
7:38 am74 °FLight rain. Cloudy.5 mph82%29.74 "Hg9 mi
6:53 am74 °FPassing clouds.3 mph82%29.69 "Hg10 mi
5:53 am74 °FPassing clouds.9 mph82%29.65 "Hg10 mi
4:53 am74 °FOvercast.12 mph82%29.65 "Hg10 mi
4:19 am74 °FPassing clouds.10 mph79%29.68 "Hg10 mi
3:53 am74 °FClear.9 mph79%29.65 "Hg10 mi
2:53 am75 °FClear.14 mph74%29.64 "Hg10 mi
1:53 am76 °FClear.14 mph69%29.67 "Hg10 mi
Weather by CustomWeather, © 2020

See weather overview

Advertising